Date String (YYYY-MM-DD hh:mm:ss) UTC,Instrument flags,Ambient pressure (hPa),Sample flow (lpm),Bypass flow (lpm),Sample temperature (°C),Ambient temperature (°C),ASC tube jacket temperature (°C),LED temperature (°C),Box temperature (°C),Sample RH (%),Span deviation,Mass concentration (μg/m³),Mass concentration (μg/m³),Mass concentration (μg/m³)
DateTimeUTC,F1_M11,P_M11,Q1_M11,Q2_M11,T1_M11,T2_M11,T3_M11,T4_M11,T5_M11,U1_M11,ZSPAN_M11,X0_M11,X2_M11,X1_M11
2022-04-08 21:00:00,,0827.5,5.01,0.00,26.7,26.1,00.0,35.5,28.6,07.0,0000.0,0010.33,0002.84,0001.64
2022-04-08 21:01:00,,0827.5,4.99,0.00,26.7,26.1,00.0,35.5,28.6,07.2,0000.0,0010.67,0002.86,0001.64
2022-04-08 21:02:00,,0827.5,5.00,0.00,26.8,26.1,00.0,35.5,28.6,07.1,0000.0,0009.93,0002.83,0001.64
2022-04-08 21:03:00,,0827.4,5.00,0.00,26.8,26.1,00.0,35.5,28.6,06.5,0000.0,0009.31,0002.78,0001.64
2022-04-08 21:04:00,,0827.4,5.00,0.00,26.8,26.1,00.0,35.6,28.6,06.7,0000.0,0008.86,0002.78,0001.63
2022-04-08 21:05:00,,0827.4,5.00,0.00,26.8,26.2,00.0,35.6,28.6,06.6,0000.0,0008.14,0002.79,0001.63
2022-04-08 21:06:00,,0827.4,5.00,0.00,26.8,26.2,00.0,35.6,28.7,06.5,0000.0,0008.43,0002.81,0001.62
2022-04-08 21:07:00,,0827.4,5.00,0.00,26.8,26.2,00.0,35.6,28.7,06.5,0000.0,0008.83,0002.83,0001.62
2022-04-08 21:08:00,,0827.3,5.00,0.00,26.8,26.2,00.0,35.6,28.7,06.7,0000.0,0008.46,0002.82,0001.62
2022-04-08 21:09:00,,0827.3,5.00,0.00,26.9,26.2,00.0,35.6,28.7,06.8,0000.0,0008.34,0002.83,0001.64
2022-04-08 21:10:00,,0827.3,5.00,0.00,26.9,26.3,00.0,35.6,28.7,06.4,0000.0,0008.12,0002.78,0001.64
2022-04-08 21:11:00,,0827.1,5.00,0.00,26.9,26.3,00.0,35.7,28.7,06.5,0000.0,0008.24,0002.82,0001.64
2022-04-08 21:12:00,,0827.2,5.00,0.00,26.9,26.3,00.0,35.7,28.8,06.6,0000.0,0008.74,0002.83,0001.65
2022-04-08 21:13:00,,0827.2,5.00,0.00,26.9,26.3,00.0,35.7,28.8,06.6,0000.0,0008.29,0002.89,0001.65
2022-04-08 21:14:00,,0827.1,4.99,0.00,26.9,26.3,00.0,35.7,28.8,06.7,0000.0,0009.15,0003.04,0001.68
2022-04-08 21:15:00,,0827.1,5.01,0.00,26.9,26.3,00.0,35.7,28.8,06.8,0000.0,0009.61,0003.11,0001.70
2022-04-08 21:16:00,,0827.1,5.00,0.00,27.0,26.3,00.0,35.7,28.8,07.1,0000.0,0009.71,0003.12,0001.70
2022-04-08 21:17:00,,0827.0,5.01,0.00,27.0,26.4,00.0,35.8,28.8,07.1,0000.0,0009.43,0003.08,0001.70
2022-04-08 21:18:00,,0827.0,5.00,0.00,27.0,26.4,00.0,35.8,28.8,06.8,0000.0,0008.64,0003.02,0001.70
2022-04-08 21:19:00,,0827.0,5.00,0.00,27.0,26.4,00.0,35.8,28.8,06.6,0000.0,0008.61,0003.03,0001.69
2022-04-08 21:20:00,,0827.0,5.00,0.00,27.0,26.4,00.0,35.8,28.8,06.6,0000.0,0008.61,0003.04,0001.69
2022-04-08 21:21:00,,0827.0,5.01,0.00,27.0,26.4,00.0,35.8,28.8,06.7,0000.0,0009.01,0003.11,0001.68
2022-04-08 21:22:00,,0826.9,5.00,0.00,27.0,26.4,00.0,35.8,28.8,06.7,0000.0,0009.01,0003.15,0001.68
2022-04-08 21:23:00,,0826.9,5.01,0.00,27.0,26.4,00.0,35.8,28.8,06.9,0000.0,0008.50,0003.19,0001.69
2022-04-08 21:24:00,,0826.9,5.00,0.00,27.0,26.5,00.0,35.8,28.9,07.0,0000.0,0008.96,0003.19,0001.68
2022-04-08 21:25:00,,0826.8,5.00,0.00,27.1,26.4,00.0,35.9,28.9,06.6,0000.0,0009.17,0003.14,0001.66
2022-04-08 21:26:00,,0826.9,5.00,0.00,27.0,26.4,00.0,35.9,28.9,06.7,0000.0,0008.87,0003.14,0001.65
2022-04-08 21:27:00,,0826.9,4.99,0.00,27.1,26.4,00.0,35.9,28.9,06.7,0000.0,0009.03,0003.17,0001.64
2022-04-08 21:28:00,,0826.8,5.00,0.00,27.0,26.4,00.0,35.9,28.9,06.9,0000.0,0009.28,0003.21,0001.64
2022-04-08 21:29:00,,0826.8,5.01,0.00,27.1,26.4,00.0,35.9,28.9,06.6,0000.0,0009.31,0003.21,0001.64
2022-04-08 21:30:00,,0826.8,5.00,0.00,27.1,26.4,00.0,35.9,28.9,06.7,0000.0,0009.38,0003.19,0001.65
2022-04-08 21:31:00,,0826.8,4.99,0.00,27.1,26.5,00.0,35.9,28.9,06.5,0000.0,0009.39,0003.20,0001.65
2022-04-08 21:32:00,,0826.8,5.00,0.00,27.1,26.5,00.0,35.9,28.9,06.6,0000.0,0009.09,0003.19,0001.66
2022-04-08 21:33:00,,0826.8,4.99,0.00,27.1,26.5,00.0,35.9,28.9,06.6,0000.0,0009.11,0003.14,0001.66
2022-04-08 21:34:00,,0826.7,4.99,0.00,27.1,26.5,00.0,35.9,29.0,06.5,0000.0,0009.18,0003.11,0001.65
2022-04-08 21:35:00,,0826.7,5.00,0.00,27.1,26.5,00.0,36.0,29.0,06.6,0000.0,0008.61,0003.07,0001.65
2022-04-08 21:36:00,,0826.7,5.00,0.00,27.1,26.5,00.0,36.0,29.0,06.7,0000.0,0007.96,0003.11,0001.66
2022-04-08 21:37:00,,0826.7,5.00,0.00,27.2,26.6,00.0,36.0,29.0,06.8,0000.0,0008.01,0003.07,0001.65
2022-04-08 21:38:00,,0826.6,5.00,0.00,27.2,26.6,00.0,36.0,29.1,06.7,0000.0,0008.53,0003.01,0001.66
2022-04-08 21:39:00,,0826.6,5.00,0.00,27.2,26.6,00.0,36.0,29.0,06.9,0000.0,0008.82,0003.03,0001.67
2022-04-08 21:40:00,,0826.6,5.00,0.00,27.2,26.6,00.0,36.0,29.1,06.7,0000.0,0008.93,0003.06,0001.68
2022-04-08 21:41:00,,0826.6,5.00,0.00,27.2,26.6,00.0,36.0,29.0,06.8,0000.0,0009.22,0003.10,0001.69
2022-04-08 21:42:00,,0826.6,4.99,0.00,27.2,26.7,00.0,36.1,29.0,06.6,0000.0,0009.17,0003.07,0001.69
2022-04-08 21:43:00,,0826.5,5.01,0.00,27.2,26.7,00.0,36.1,29.1,06.6,0000.0,0009.23,0003.01,0001.68
2022-04-08 21:44:00,,0826.5,5.00,0.00,27.3,26.7,00.0,36.1,29.1,06.7,0000.0,0009.96,0003.12,0001.67
2022-04-08 21:45:00,,0826.6,5.00,0.00,27.3,26.7,00.0,36.1,29.1,06.9,0000.0,0009.84,0003.11,0001.67
2022-04-08 21:46:00,,0826.5,5.00,0.00,27.3,26.7,00.0,36.1,29.1,06.6,0000.0,0009.78,0003.10,0001.68
2022-04-08 21:47:00,,0826.5,5.00,0.00,27.3,26.7,00.0,36.1,29.1,06.7,0000.0,0010.43,0003.12,0001.70
2022-04-08 21:48:00,,0826.5,5.00,0.00,27.3,26.8,00.0,36.1,29.1,06.6,0000.0,0010.47,0003.02,0001.71
2022-04-08 21:49:00,,0826.5,5.00,0.00,27.3,26.8,00.0,36.2,29.1,06.6,0000.0,0010.45,0003.04,0001.72
2022-04-08 21:50:00,,0826.5,5.00,0.00,27.3,26.8,00.0,36.2,29.1,06.5,0000.0,0010.21,0003.04,0001.72
2022-04-08 21:51:00,,0826.5,5.00,0.00,27.3,26.8,00.0,36.2,29.1,06.7,0000.0,0011.33,0003.02,0001.72
2022-04-08 21:52:00,,0826.5,4.99,0.00,27.4,26.8,00.0,36.2,29.2,06.5,0000.0,0011.19,0003.02,0001.71
2022-04-08 21:53:00,,0826.5,5.00,0.00,27.4,26.8,00.0,36.2,29.2,06.7,0000.0,0011.56,0003.06,0001.71
2022-04-08 21:54:00,,0826.4,5.00,0.00,27.4,26.8,00.0,36.2,29.2,06.6,0000.0,0011.63,0003.10,0001.73
2022-04-08 21:55:00,,0826.3,5.00,0.00,27.4,26.8,00.0,36.2,29.2,06.8,0000.0,0011.17,0003.07,0001.74
2022-04-08 21:56:00,,0826.3,5.01,0.00,27.4,26.8,00.0,36.2,29.2,06.6,0000.0,0011.89,0003.12,0001.74
2022-04-08 21:57:00,,0826.3,5.00,0.00,27.4,26.8,00.0,36.3,29.2,06.7,0000.0,0012.01,0003.10,0001.73
2022-04-08 21:58:00,,0826.3,5.00,0.00,27.4,26.8,00.0,36.3,29.2,06.5,0000.0,0011.67,0003.05,0001.73
2022-04-08 21:59:00,,0826.3,5.00,0.00,27.4,26.9,00.0,36.3,29.2,06.6,0000.0,0011.30,0003.11,0001.73
